This demonstration page uses our WeatherBlox Daily Observations layout. Learn more.

Left ArrowRight Arrow

Hourly Observations for February 2, 2016

Temp ( °F °C ) Dew Point ( °F °C ) Humidity (%) Winds ( mph kmh ) Pressure ( in mb ) Visibility ( mi km ) Precip ( " mm )
12:15 am 00:15 Cloudy 32 0 28 -2 87 87 NE 25 41 29.83 1010 3 4 0.00 0.00
12:35 am 00:35 Cloudy 32 0 28 -2 87 87 NE 23 37 29.83 1010 2 3 0.00 0.00
12:55 am 00:55 Cloudy 32 0 28 -2 87 87 NE 24 39 29.80 1009 2 3 0.00 0.00
1:15 am 01:15 Cloudy 34 1 28 -2 81 81 NE 30 48 29.80 1009 2 3 0.00 0.00
1:35 am 01:35 Cloudy 34 1 30 -1 87 87 NE 28 44 29.77 1008 1 2 0.00 0.00
1:55 am 01:55 Cloudy 34 1 28 -2 81 81 NE 32 52 29.74 1007 1 1 0.00 0.00
2:15 am 02:15 Cloudy 34 1 28 -2 81 81 NE 32 52 29.74 1007 1 1 0.00 0.00
2:35 am 02:35 Cloudy 34 1 28 -2 81 81 NE 30 48 29.71 1006 1 1 0.00 0.00
2:55 am 02:55 Cloudy 34 1 28 -2 81 81 NE 33 54 29.65 1004 1 1 0.00 0.00
3:15 am 03:15 Cloudy 34 1 28 -2 81 81 NE 35 56 29.65 1004 1 1 0.00 0.00
3:35 am 03:35 Cloudy 34 1 28 -2 81 81 NE 36 57 29.62 1003 1 1 0.00 0.00
3:55 am 03:55 Cloudy 34 1 28 -2 81 81 NE 37 59 29.59 1002 1 1 0.00 0.00
4:15 am 04:15 Cloudy 34 1 28 -2 81 81 NE 37 59 29.59 1002 1 1 0.00 0.00
4:35 am 04:35 Cloudy 34 1 28 -2 81 81 NE 36 57 29.59 1002 1 1 0.00 0.00
4:55 am 04:55 Cloudy 34 1 28 -2 81 81 NE 32 52 29.56 1001 1 1 0.00 0.00
5:15 am 05:15 Cloudy 34 1 28 -2 81 81 NNE 36 57 29.56 1001 0 0 0.00 0.00
5:35 am 05:35 Cloudy 32 0 28 -2 87 87 NNE 35 56 29.59 1002 0 0 0.00 0.00
5:55 am 05:55 Cloudy 32 0 28 -2 87 87 NNE 37 59 29.59 1002 0 0 0.00 0.00
6:15 am 06:15 Cloudy 32 0 28 -2 87 87 NNE 33 54 29.59 1002 0 0 0.00 0.00
6:35 am 06:35 Cloudy 32 0 28 -2 87 87 NNE 37 59 29.59 1002 0 0 0.00 0.00
6:55 am 06:55 Cloudy 32 0 28 -2 87 87 NNE 37 59 29.59 1002 0 0 0.00 0.00
7:15 am 07:15 Cloudy 32 0 28 -2 87 87 NNE 37 59 29.59 1002 0 0 0.00 0.00
7:35 am 07:35 Cloudy 30 -1 27 -3 86 86 NNE 36 57 29.59 1002 5 8 0.00 0.00
7:55 am 07:55 Cloudy 30 -1 27 -3 86 86 NNE 39 63 29.59 1002 5 8 0.00 0.00
8:15 am 08:15 Cloudy 30 -1 27 -3 86 86 N 39 63 29.59 1002 5 8 0.00 0.00
8:35 am 08:35 Cloudy 30 -1 27 -3 86 86 N 43 69 29.59 1002 5 8 0.00 0.00
8:55 am 08:55 Cloudy 30 -1 27 -3 86 86 N 40 65 29.59 1002 5 8 0.00 0.00
9:15 am 09:15 Cloudy 30 -1 27 -3 86 86 N 40 65 29.59 1002 5 8 0.00 0.00
9:35 am 09:35 Cloudy 30 -1 27 -3 86 86 N 41 67 29.59 1002 5 8 0.00 0.00
9:55 am 09:55 Cloudy 30 -1 25 -4 80 80 N 40 65 29.59 1002 5 8 0.00 0.00
10:15 am 10:15 Cloudy 30 -1 25 -4 80 80 N 38 61 29.59 1002 5 8 0.00 0.00
10:35 am 10:35 Cloudy 28 -2 25 -4 86 86 N 37 59 29.59 1002 0 0 0.00 0.00
10:55 am 10:55 Cloudy 28 -2 25 -4 86 86 N 36 57 29.59 1002 5 8 0.00 0.00
11:15 am 11:15 Cloudy 30 -1 25 -4 80 80 N 38 61 29.59 1002 5 8 0.00 0.00
11:35 am 11:35 Cloudy 28 -2 25 -4 86 86 N 39 63 29.59 1002 5 8 0.00 0.00
11:55 am 11:55 Cloudy 28 -2 25 -4 86 86 N 36 57 29.59 1002 5 8 0.00 0.00
12:15 pm 12:15 Cloudy 28 -2 25 -4 86 86 N 35 56 29.59 1002 0 0 0.00 0.00
12:35 pm 12:35 Cloudy 28 -2 25 -4 86 86 N 36 57 29.59 1002 0 0 0.00 0.00
12:55 pm 12:55 Cloudy 28 -2 25 -4 86 86 N 37 59 29.59 1002 0 0 0.00 0.00
1:15 pm 13:15 Cloudy 30 -1 25 -4 80 80 N 39 63 29.59 1002 0 0 0.00 0.00
1:35 pm 13:35 Cloudy 30 -1 25 -4 80 80 N 35 56 29.59 1002 0 0 0.00 0.00
1:55 pm 13:55 Cloudy 30 -1 25 -4 80 80 N 36 57 29.59 1002 0 0 0.00 0.00
2:15 pm 14:15 Cloudy 28 -2 -18 -28 12 12 N 33 54 29.59 1002 0 0 0.00 0.00
2:35 pm 14:35 Cloudy 28 -2 -18 -28 12 12 N 35 56 29.59 1002 1 1 0.00 0.00
2:55 pm 14:55 Cloudy 27 -3 -18 -28 13 13 N 35 56 29.59 1002 1 1 0.00 0.00
3:15 pm 15:15 Cloudy 27 -3 -20 -29 11 11 N 37 59 29.65 1004 1 1 0.00 0.00
3:35 pm 15:35 Cloudy 27 -3 -20 -29 11 11 N 35 56 29.65 1004 1 1 0.00 0.00
3:55 pm 15:55 Cloudy 27 -3 -20 -29 11 11 N 33 54 29.68 1005 1 1 0.00 0.00
4:15 pm 16:15 Cloudy 27 -3 -20 -29 11 11 N 38 61 29.68 1005 1 1 0.00 0.00
4:35 pm 16:35 Cloudy 27 -3 -20 -29 11 11 N 32 52 29.71 1006 1 1 0.00 0.00
4:55 pm 16:55 Cloudy 27 -3 -20 -29 11 11 N 36 57 29.71 1006 1 1 0.00 0.00
5:15 pm 17:15 Cloudy 27 -3 -20 -29 11 11 N 35 56 29.74 1007 1 1 0.00 0.00
5:35 pm 17:35 Cloudy 27 -3 -20 -29 11 11 N 32 52 29.77 1008 1 1 0.00 0.00
5:55 pm 17:55 Cloudy 27 -3 -20 -29 11 11 N 33 54 29.77 1008 1 1 0.00 0.00
6:15 pm 18:15 Cloudy 27 -3 -20 -29 11 11 N 33 54 29.80 1009 1 1 0.00 0.00
6:35 pm 18:35 Cloudy 27 -3 -20 -29 11 11 N 32 52 29.83 1010 1 2 0.00 0.00
6:55 pm 18:55 Cloudy 27 -3 -20 -29 11 11 N 33 54 29.83 1010 1 2 0.00 0.00
7:15 pm 19:15 Cloudy 27 -3 -20 -29 11 11 NNW 30 48 29.83 1010 1 2 0.00 0.00
7:35 pm 19:35 Cloudy 27 -3 -20 -29 11 11 NNW 33 54 29.85 1011 1 2 0.00 0.00
7:55 pm 19:55 Cloudy 25 -4 -20 -29 12 12 NNW 31 50 29.85 1011 1 2 0.00 0.00
8:15 pm 20:15 Cloudy 25 -4 -20 -29 12 12 NNW 31 50 29.88 1012 1 2 0.00 0.00
8:35 pm 20:35 Cloudy 25 -4 -20 -29 12 12 NNW 28 44 29.88 1012 2 3 0.00 0.00
8:55 pm 20:55 Cloudy 25 -4 -20 -29 12 12 NNW 29 46 29.88 1012 2 3 0.00 0.00
9:15 pm 21:15 Cloudy 25 -4 -20 -29 12 12 N 28 44 29.94 1014 2 3 0.00 0.00
9:35 pm 21:35 Cloudy 25 -4 -20 -29 12 12 NNW 28 44 29.94 1014 3 5 0.00 0.00
9:55 pm 21:55 Cloudy 25 -4 -20 -29 12 12 NNW 25 41 29.97 1015 4 6 0.00 0.00
10:15 pm 22:15 Cloudy 25 -4 -22 -30 11 11 NNW 25 41 29.97 1015 5 8 0.00 0.00
10:35 pm 22:35 Cloudy 25 -4 -20 -29 12 12 NNW 26 43 29.97 1015 5 8 0.00 0.00
10:55 pm 22:55 Cloudy 25 -4 -22 -30 11 11 NNW 26 43 30.00 1016 3 5 0.00 0.00
11:15 pm 23:15 Cloudy 25 -4 -22 -30 11 11 NNW 26 43 30.00 1016 6 10 0.00 0.00
11:35 pm 23:35 Cloudy 25 -4 -22 -30 11 11 NNW 22 35 30.00 1016 10 16 0.00 0.00
11:55 pm 23:55 Cloudy 25 -4 -22 -30 11 11 NNW 24 39 30.00 1016 6 10 0.00 0.00

Powered by AerisWeather